QPF
0.00 0.00 0.00 0.00 0.00 0.00 0.00 0.00 0.00 0.00 0.00 0.00 0.00 0.00 0.00 0.00 0.00 0.00 0.00 0.00 0.00 0.00 0.00 0.00 0.00 0.00 0.00 0.00 0.00 0.00 0.00 0.00 0.00 0.00 0.00 0.00 0.00 0.00 0.00 0.00 0.00 0.00 0.00
0.00 0.00 0.00 0.00 0.00 0.00 0.00 0.00 0.00 0.00 0.00 0.00 0.00 0.00 0.00 0.00 0.00 0.00 0.00 0.00 0.00 0.00 0.00 0.00 0.00 0.00 0.00 0.00 0.00 0.00 0.00 0.00 0.00 0.00 0.00 0.00 0.00 0.00 0.00 0.00 0.00 0.00 0.00
0.00 0.00 0.00 0.00 0.00 0.00 0.00 0.00 0.00 0.00 0.00 0.00 0.00 0.00 0.00 0.00 0.00 0.00 0.00 0.00 0.00 0.00 0.00 0.00 0.00 0.00 0.00 0.00 0.00 0.00 0.00 0.00 0.00 0.00 0.00 0.00 0.00 0.00 0.00 0.00 0.00 0.00 0.00
0.00 0.00 0.00 0.00 0.00 0.00 0.00 0.00 0.00 0.00 0.00 0.00 0.00 0.00 0.00 0.00 0.00 0.00 0.00 0.00 0.00 0.00 0.00 0.00 0.00 0.00 0.00 0.00 0.00 0.00 0.00 0.00 0.00 0.00 0.00 0.00 0.00 0.00 0.01 0.01 0.01 0.01 0.01
0.00 0.00 0.00 0.00 0.00 0.00 0.00 0.00 0.00 0.00 0.00 0.00 0.00 0.00 0.00 0.00 0.00 0.00 0.00 0.00 0.00 0.00 0.00 0.00 0.00 0.00 0.00 0.00 0.00 0.00 0.00 0.00 0.00 0.00 0.00 0.00 0.00 0.00 0.01 0.03 0.03 0.03 0.03
0.00 0.00 0.00 0.00 0.00 0.00 0.00 0.00 0.00 0.00 0.00 0.00 0.00 0.00 0.00 0.00 0.00 0.00 0.00 0.00 0.00 0.00 0.00 0.00 0.00 0.00 0.00 0.00 0.00 0.00 0.00 0.00 0.00 0.00 0.00 0.00 0.00 0.01 0.01 0.04 0.05 0.05 0.04
0.00 0.00 0.00 0.00 0.00 0.00 0.00 0.00 0.00 0.00 0.00 0.00 0.00 0.00 0.00 0.00 0.00 0.00 0.00 0.00 0.00 0.00 0.00 0.00 0.00 0.00 0.00 0.00 0.00 0.00 0.00 0.00 0.00 0.00 0.00 0.00 0.00 0.00 0.01 0.03 0.06 0.06 0.05
0.00 0.00 0.00 0.00 0.00 0.00 0.00 0.00 0.00 0.00 0.00 0.00 0.00 0.00 0.00 0.00 0.00 0.00 0.00 0.00 0.00 0.00 0.00 0.00 0.00 0.00 0.00 0.00 0.00 0.00 0.00 0.00 0.00 0.00 0.00 0.00 0.00 0.00 0.00 0.03 0.06 0.07 0.07
0.00 0.00 0.00 0.00 0.00 0.00 0.00 0.00 0.00 0.00 0.00 0.00 0.00 0.00 0.00 0.00 0.00 0.00 0.00 0.00 0.00 0.00 0.00 0.00 0.00 0.00 0.00 0.00 0.00 0.00 0.00 0.00 0.00 0.00 0.00 0.00 0.00 0.00 0.01 0.03 0.06 0.08 0.07
0.00 0.00 0.00 0.00 0.00 0.00 0.00 0.00 0.00 0.00 0.00 0.00 0.00 0.00 0.00 0.00 0.00 0.00 0.00 0.00 0.00 0.00 0.00 0.00 0.00 0.00 0.00 0.00 0.00 0.00 0.00 0.00 0.00 0.00 0.00 0.00 0.00 0.01 0.01 0.03 0.06 0.09 0.08
0.00 0.00 0.00 0.00 0.00 0.00 0.00 0.00 0.00 0.00 0.00 0.00 0.00 0.00 0.00 0.00 0.00 0.00 0.00 0.00 0.00 0.00 0.00 0.00 0.00 0.00 0.00 0.00 0.01 0.01 0.01 0.01 0.00 0.00 0.00 0.00 0.01 0.02 0.03 0.04 0.06 0.08 0.09
0.00 0.00 0.00 0.00 0.00 0.00 0.00 0.00 0.00 0.00 0.00 0.00 0.00 0.00 0.00 0.00 0.00 0.00 0.00 0.00 0.00 0.01 0.01 0.01 0.02 0.01 0.01 0.01 0.01 0.01 0.00 0.00 0.00 0.00 0.00 0.01 0.02 0.04 0.06 0.06 0.06 0.08 0.09
0.00 0.00 0.00 0.00 0.00 0.00 0.00 0.00 0.00 0.00 0.00 0.00 0.00 0.00 0.00 0.00 0.00 0.00 0.00 0.00 0.00 0.02 0.01 0.01 0.02 0.02 0.01 0.01 0.00 0.00 0.00 0.00 0.00 0.01 0.01 0.01 0.03 0.07 0.11 0.10 0.09 0.09 0.09
0.00 0.00 0.00 0.00 0.00 0.00 0.00 0.00 0.00 0.00 0.00 0.00 0.00 0.00 0.00 0.00 0.00 0.00 0.00 0.00 0.01 0.01 0.01 0.01 0.01 0.01 0.01 0.02 0.03 0.01 0.01 0.01 0.01 0.02 0.02 0.01 0.02 0.04 0.09 0.11 0.09 0.09 0.08
0.00 0.00 0.00 0.00 0.00 0.01 0.01 0.01 0.01 0.00 0.00 0.00 0.00 0.01 0.01 0.01 0.01 0.01 0.00 0.01 0.01 0.01 0.01 0.02 0.03 0.04 0.04 0.06 0.04 0.03 0.03 0.03 0.03 0.03 0.03 0.02 0.01 0.03 0.05 0.08 0.08 0.08 0.08
0.00 0.01 0.01 0.02 0.03 0.03 0.03 0.03 0.03 0.04 0.03 0.02 0.02 0.02 0.02 0.02 0.03 0.03 0.02 0.03 0.02 0.03 0.04 0.06 0.08 0.09 0.07 0.07 0.06 0.07 0.08 0.08 0.06 0.06 0.05 0.04 0.02 0.02 0.03 0.06 0.08 0.08 0.09
0.01 0.01 0.02 0.05 0.08 0.09 0.10 0.11 0.10 0.10 0.09 0.07 0.06 0.07 0.07 0.07 0.08 0.08 0.07 0.07 0.08 0.10 0.12 0.13 0.14 0.14 0.11 0.12 0.12 0.14 0.13 0.11 0.09 0.07 0.08 0.06 0.05 0.02 0.02 0.03 0.06 0.08 0.10
0.01 0.02 0.03 0.08 0.13 0.17 0.20 0.23 0.23 0.23 0.19 0.15 0.15 0.14 0.14 0.13 0.13 0.16 0.15 0.16 0.21 0.23 0.24 0.25 0.25 0.23 0.18 0.16 0.14 0.16 0.15 0.13 0.11 0.09 0.07 0.06 0.05 0.04 0.02 0.02 0.03 0.04 0.09
0.03 0.05 0.05 0.09 0.15 0.24 0.30 0.30 0.31 0.34 0.29 0.23 0.20 0.18 0.16 0.16 0.18 0.22 0.21 0.22 0.30 0.36 0.37 0.36 0.33 0.29 0.24 0.21 0.19 0.17 0.15 0.13 0.10 0.07 0.05 0.05 0.04 0.03 0.02 0.01 0.01 0.02 0.06
0.07 0.07 0.06 0.09 0.13 0.17 0.23 0.25 0.25 0.26 0.24 0.22 0.21 0.17 0.16 0.17 0.22 0.29 0.27 0.28 0.37 0.40 0.38 0.39 0.38 0.35 0.28 0.26 0.24 0.14 0.11 0.10 0.07 0.04 0.03 0.03 0.02 0.03 0.02 0.03 0.02 0.02 0.02
0.05 0.05 0.06 0.09 0.11 0.16 0.21 0.23 0.22 0.18 0.15 0.14 0.16 0.16 0.15 0.16 0.19 0.24 0.24 0.27 0.35 0.38 0.39 0.43 0.44 0.40 0.31 0.31 0.24 0.12 0.07 0.05 0.03 0.02 0.02 0.02 0.02 0.03 0.04 0.03 0.03 0.02 0.02
0.02 0.02 0.04 0.06 0.10 0.13 0.14 0.14 0.14 0.12 0.09 0.07 0.12 0.15 0.16 0.17 0.16 0.17 0.19 0.23 0.29 0.35 0.37 0.39 0.40 0.36 0.30 0.30 0.25 0.18 0.08 0.04 0.03 0.02 0.02 0.02 0.02 0.03 0.03 0.04 0.04 0.04 0.03
0.01 0.01 0.02 0.04 0.08 0.07 0.05 0.05 0.06 0.06 0.04 0.05 0.08 0.09 0.11 0.13 0.15 0.17 0.19 0.23 0.28 0.33 0.29 0.31 0.37 0.37 0.32 0.29 0.27 0.24 0.15 0.08 0.05 0.03 0.03 0.03 0.03 0.03 0.04 0.04 0.03 0.03 0.04
0.01 0.00 0.00 0.01 0.01 0.01 0.02 0.02 0.02 0.02 0.02 0.02 0.04 0.04 0.06 0.08 0.09 0.11 0.13 0.15 0.21 0.25 0.23 0.24 0.26 0.26 0.27 0.26 0.25 0.23 0.19 0.13 0.09 0.05 0.04 0.04 0.04 0.04 0.04 0.03 0.03 0.04 0.04
0.00 0.00 0.00 0.00 0.00 0.00 0.00 0.00 0.01 0.00 0.01 0.01 0.02 0.01 0.02 0.04 0.05 0.07 0.09 0.09 0.12 0.14 0.15 0.18 0.19 0.20 0.19 0.19 0.18 0.17 0.16 0.13 0.09 0.06 0.04 0.04 0.04 0.04 0.03 0.02 0.04 0.05 0.04
0.00 0.00 0.00 0.00 0.00 0.00 0.00 0.00 0.00 0.00 0.00 0.00 0.00 0.00 0.00 0.01 0.02 0.03 0.05 0.07 0.09 0.11 0.12 0.12 0.13 0.14 0.13 0.13 0.12 0.11 0.11 0.09 0.08 0.07 0.06 0.05 0.05 0.04 0.03 0.03 0.03 0.03 0.02
MSLP
1011.12 1010.88 1010.88 1011.10 1011.49 1011.94 1012.35 1012.67 1012.86 1012.93 1012.93 1012.93 1012.98 1013.13 1013.37 1013.68 1014.02 1014.33 1014.57 1014.71 1014.77 1014.75 1014.70 1014.66 1014.65 1014.70 1014.79 1014.91 1015.03 1015.15 1015.24 1015.30 1015.36 1015.41 1015.48 1015.58 1015.70 1015.83 1015.97 1016.09 1016.20 1016.28 1016.34
1010.73 1010.64 1010.77 1011.11 1011.58 1012.09 1012.53 1012.86 1013.05 1013.11 1013.11 1013.12 1013.19 1013.36 1013.63 1013.96 1014.31 1014.62 1014.85 1014.98 1015.02 1014.99 1014.95 1014.91 1014.92 1014.97 1015.05 1015.16 1015.25 1015.33 1015.38 1015.42 1015.45 1015.49 1015.57 1015.67 1015.80 1015.94 1016.07 1016.18 1016.26 1016.33 1016.38
1010.38 1010.41 1010.66 1011.09 1011.64 1012.19 1012.67 1013.01 1013.21 1013.29 1013.31 1013.34 1013.43 1013.63 1013.91 1014.24 1014.57 1014.85 1015.05 1015.14 1015.16 1015.13 1015.09 1015.07 1015.09 1015.16 1015.25 1015.35 1015.43 1015.47 1015.50 1015.51 1015.53 1015.57 1015.65 1015.76 1015.89 1016.03 1016.15 1016.24 1016.30 1016.36 1016.42
1010.10 1010.24 1010.58 1011.08 1011.67 1012.26 1012.76 1013.11 1013.33 1013.43 1013.48 1013.54 1013.67 1013.88 1014.16 1014.47 1014.77 1015.00 1015.15 1015.20 1015.19 1015.16 1015.12 1015.14 1015.19 1015.28 1015.39 1015.49 1015.56 1015.59 1015.60 1015.59 1015.60 1015.65 1015.73 1015.84 1015.97 1016.10 1016.20 1016.28 1016.33 1016.38 1016.44
1009.96 1010.16 1010.55 1011.09 1011.70 1012.29 1012.79 1013.16 1013.39 1013.52 1013.60 1013.71 1013.86 1014.09 1014.36 1014.65 1014.90 1015.08 1015.16 1015.18 1015.15 1015.11 1015.10 1015.14 1015.23 1015.35 1015.48 1015.59 1015.66 1015.69 1015.68 1015.67 1015.68 1015.72 1015.81 1015.92 1016.04 1016.15 1016.23 1016.28 1016.32 1016.36 1016.43
1009.97 1010.20 1010.60 1011.14 1011.73 1012.30 1012.78 1013.14 1013.38 1013.53 1013.65 1013.79 1013.97 1014.22 1014.48 1014.74 1014.95 1015.09 1015.13 1015.11 1015.07 1015.03 1015.04 1015.11 1015.24 1015.39 1015.54 1015.66 1015.73 1015.75 1015.74 1015.73 1015.74 1015.78 1015.86 1015.96 1016.07 1016.15 1016.20 1016.22 1016.23 1016.26 1016.34
1010.11 1010.34 1010.72 1011.22 1011.77 1012.29 1012.73 1013.06 1013.29 1013.46 1013.60 1013.78 1013.99 1014.26 1014.53 1014.77 1014.96 1015.05 1015.07 1015.03 1014.98 1014.96 1014.99 1015.08 1015.23 1015.41 1015.57 1015.69 1015.76 1015.77 1015.76 1015.74 1015.74 1015.78 1015.85 1015.94 1016.02 1016.07 1016.09 1016.07 1016.06 1016.07 1016.15
1010.35 1010.56 1010.90 1011.34 1011.83 1012.28 1012.66 1012.94 1013.15 1013.32 1013.48 1013.68 1013.93 1014.22 1014.50 1014.74 1014.92 1015.00 1015.01 1014.96 1014.91 1014.90 1014.94 1015.05 1015.21 1015.39 1015.55 1015.66 1015.71 1015.72 1015.69 1015.67 1015.67 1015.70 1015.76 1015.83 1015.88 1015.89 1015.87 1015.82 1015.77 1015.77 1015.83
1010.62 1010.81 1011.11 1011.50 1011.91 1012.28 1012.59 1012.82 1012.99 1013.15 1013.32 1013.54 1013.81 1014.12 1014.42 1014.67 1014.85 1014.94 1014.94 1014.90 1014.85 1014.84 1014.89 1015.00 1015.15 1015.32 1015.46 1015.55 1015.58 1015.57 1015.53 1015.49 1015.49 1015.51 1015.55 1015.60 1015.62 1015.61 1015.55 1015.47 1015.39 1015.36 1015.40
1010.86 1011.04 1011.32 1011.66 1012.01 1012.31 1012.55 1012.73 1012.86 1012.99 1013.16 1013.39 1013.67 1013.99 1014.31 1014.57 1014.76 1014.84 1014.85 1014.82 1014.78 1014.76 1014.80 1014.90 1015.03 1015.17 1015.28 1015.34 1015.35 1015.32 1015.27 1015.22 1015.20 1015.21 1015.24 1015.27 1015.27 1015.23 1015.15 1015.04 1014.93 1014.88 1014.91
1011.01 1011.22 1011.49 1011.81 1012.11 1012.37 1012.55 1012.68 1012.78 1012.89 1013.04 1013.26 1013.55 1013.87 1014.18 1014.45 1014.63 1014.72 1014.73 1014.70 1014.65 1014.63 1014.66 1014.73 1014.83 1014.94 1015.02 1015.05 1015.04 1014.98 1014.92 1014.86 1014.84 1014.84 1014.85 1014.87 1014.85 1014.79 1014.69 1014.57 1014.45 1014.38 1014.39
1011.06 1011.31 1011.61 1011.92 1012.21 1012.43 1012.59 1012.68 1012.75 1012.84 1012.97 1013.17 1013.44 1013.74 1014.04 1014.29 1014.46 1014.54 1014.55 1014.51 1014.46 1014.42 1014.43 1014.48 1014.55 1014.63 1014.68 1014.70 1014.67 1014.61 1014.53 1014.47 1014.43 1014.42 1014.42 1014.42 1014.39 1014.32 1014.21 1014.08 1013.96 1013.88 1013.87
1011.00 1011.30 1011.64 1011.98 1012.27 1012.48 1012.62 1012.71 1012.76 1012.83 1012.95 1013.12 1013.36 1013.62 1013.88 1014.09 1014.23 1014.30 1014.29 1014.23 1014.17 1014.13 1014.12 1014.16 1014.21 1014.27 1014.32 1014.32 1014.29 1014.22 1014.15 1014.09 1014.03 1014.01 1013.98 1013.96 1013.91 1013.83 1013.72 1013.59 1013.47 1013.39 1013.38
1010.85 1011.21 1011.59 1011.94 1012.25 1012.48 1012.63 1012.72 1012.78 1012.84 1012.94 1013.08 1013.27 1013.48 1013.68 1013.84 1013.94 1013.97 1013.94 1013.88 1013.81 1013.76 1013.75 1013.78 1013.84 1013.89 1013.94 1013.95 1013.93 1013.88 1013.81 1013.74 1013.67 1013.62 1013.57 1013.51 1013.43 1013.34 1013.22 1013.09 1012.97 1012.90 1012.90
1010.66 1011.04 1011.44 1011.82 1012.14 1012.40 1012.58 1012.69 1012.76 1012.83 1012.91 1013.01 1013.15 1013.29 1013.42 1013.52 1013.57 1013.56 1013.51 1013.44 1013.37 1013.33 1013.33 1013.37 1013.44 1013.52 1013.58 1013.62 1013.62 1013.59 1013.53 1013.45 1013.36 1013.27 1013.18 1013.08 1012.96 1012.83 1012.70 1012.57 1012.45 1012.39 1012.38
1010.46 1010.84 1011.23 1011.60 1011.94 1012.22 1012.43 1012.58 1012.67 1012.74 1012.81 1012.88 1012.95 1013.03 1013.08 1013.11 1013.11 1013.07 1013.00 1012.93 1012.87 1012.85 1012.88 1012.95 1013.04 1013.16 1013.26 1013.33 1013.36 1013.35 1013.30 1013.21 1013.10 1012.97 1012.82 1012.66 1012.49 1012.31 1012.15 1012.00 1011.88 1011.82 1011.81
1010.29 1010.62 1010.97 1011.33 1011.66 1011.96 1012.19 1012.38 1012.50 1012.58 1012.63 1012.66 1012.67 1012.67 1012.66 1012.62 1012.56 1012.49 1012.42 1012.36 1012.33 1012.34 1012.40 1012.50 1012.64 1012.80 1012.94 1013.05 1013.12 1013.14 1013.10 1013.01 1012.86 1012.68 1012.47 1012.24 1012.01 1011.78 1011.57 1011.39 1011.26 1011.18 1011.17
1010.18 1010.43 1010.72 1011.03 1011.34 1011.64 1011.90 1012.10 1012.25 1012.34 1012.38 1012.36 1012.32 1012.24 1012.15 1012.05 1011.95 1011.85 1011.78 1011.74 1011.74 1011.79 1011.89 1012.04 1012.22 1012.42 1012.61 1012.77 1012.88 1012.92 1012.90 1012.80 1012.64 1012.41 1012.14 1011.84 1011.54 1011.25 1010.98 1010.76 1010.60 1010.51 1010.48
1010.14 1010.29 1010.49 1010.74 1011.02 1011.31 1011.58 1011.80 1011.97 1012.06 1012.07 1012.02 1011.91 1011.76 1011.60 1011.44 1011.30 1011.18 1011.11 1011.09 1011.12 1011.21 1011.35 1011.54 1011.77 1012.00 1012.23 1012.43 1012.58 1012.66 1012.66 1012.57 1012.39 1012.14 1011.82 1011.47 1011.11 1010.75 1010.43 1010.17 1009.97 1009.85 1009.80
1010.14 1010.20 1010.32 1010.51 1010.75 1011.02 1011.29 1011.52 1011.69 1011.77 1011.76 1011.66 1011.49 1011.28 1011.05 1010.84 1010.65 1010.51 1010.44 1010.43 1010.48 1010.60 1010.78 1010.99 1011.25 1011.52 1011.78 1012.02 1012.21 1012.32 1012.35 1012.29 1012.12 1011.86 1011.53 1011.15 1010.74 1010.35 1009.98 1009.68 1009.45 1009.29 1009.22
1010.18 1010.16 1010.22 1010.34 1010.55 1010.80 1011.06 1011.29 1011.45 1011.52 1011.48 1011.34 1011.11 1010.84 1010.55 1010.28 1010.05 1009.89 1009.80 1009.79 1009.85 1009.98 1010.17 1010.40 1010.67 1010.95 1011.24 1011.51 1011.74 1011.90 1011.98 1011.96 1011.83 1011.60 1011.28 1010.90 1010.48 1010.07 1009.68 1009.35 1009.09 1008.91 1008.79
1010.25 1010.18 1010.17 1010.26 1010.43 1010.66 1010.91 1011.14 1011.29 1011.34 1011.28 1011.10 1010.83 1010.49 1010.15 1009.82 1009.54 1009.34 1009.23 1009.20 1009.24 1009.36 1009.54 1009.76 1010.03 1010.32 1010.62 1010.92 1011.19 1011.41 1011.54 1011.59 1011.52 1011.34 1011.07 1010.73 1010.34 1009.94 1009.55 1009.21 1008.93 1008.73 1008.59
1010.32 1010.22 1010.19 1010.25 1010.40 1010.61 1010.84 1011.06 1011.21 1011.26 1011.17 1010.96 1010.65 1010.27 1009.87 1009.49 1009.16 1008.91 1008.75 1008.67 1008.68 1008.76 1008.90 1009.09 1009.34 1009.62 1009.93 1010.26 1010.57 1010.84 1011.04 1011.16 1011.19 1011.09 1010.90 1010.63 1010.30 1009.95 1009.59 1009.27 1008.99 1008.77 1008.60
1010.41 1010.30 1010.25 1010.29 1010.42 1010.61 1010.84 1011.05 1011.20 1011.24 1011.14 1010.92 1010.58 1010.17 1009.72 1009.29 1008.91 1008.59 1008.36 1008.22 1008.16 1008.18 1008.27 1008.41 1008.62 1008.89 1009.20 1009.53 1009.88 1010.21 1010.49 1010.70 1010.82 1010.83 1010.74 1010.57 1010.33 1010.05 1009.75 1009.47 1009.21 1008.99 1008.81
1010.51 1010.40 1010.34 1010.36 1010.47 1010.66 1010.87 1011.08 1011.22 1011.26 1011.17 1010.94 1010.59 1010.16 1009.69 1009.21 1008.76 1008.38 1008.07 1007.85 1007.71 1007.64 1007.66 1007.74 1007.90 1008.14 1008.43 1008.78 1009.15 1009.53 1009.88 1010.17 1010.39 1010.52 1010.55 1010.49 1010.36 1010.17 1009.96 1009.74 1009.52 1009.32 1009.14
1010.66 1010.54 1010.47 1010.47 1010.55 1010.71 1010.91 1011.10 1011.25 1011.29 1011.21 1010.99 1010.65 1010.21 1009.71 1009.19 1008.68 1008.23 1007.84 1007.52 1007.29 1007.14 1007.07 1007.09 1007.19 1007.39 1007.66 1008.01 1008.40 1008.81 1009.22 1009.59 1009.91 1010.14 1010.29 1010.35 1010.34 1010.27 1010.15 1010.01 1009.85 1009.68 1009.52
Thickness
5823 5822 5818 5813 5809 5805 5802 5799 5797 5794 5792 5790 5788 5786 5784 5782 5780 5778 5777 5775 5773 5771 5770 5768 5767 5766 5764 5763 5761 5760 5758 5757 5755 5753 5752 5751 5750 5748 5747 5746 5744 5743 5742
5831 5825 5820 5815 5810 5806 5802 5799 5796 5794 5792 5789 5787 5785 5783 5781 5780 5778 5776 5774 5772 5771 5769 5767 5766 5764 5763 5761 5760 5758 5757 5755 5754 5753 5752 5751 5749 5748 5747 5746 5744 5743 5742
5831 5826 5821 5816 5811 5807 5803 5799 5796 5793 5791 5789 5787 5785 5783 5781 5779 5777 5775 5774 5772 5770 5768 5766 5765 5763 5762 5760 5758 5757 5756 5754 5753 5752 5751 5750 5749 5748 5747 5746 5744 5743 5742
5831 5826 5821 5816 5812 5807 5803 5799 5796 5793 5790 5788 5786 5784 5782 5780 5778 5776 5775 5773 5771 5769 5768 5766 5764 5763 5761 5759 5758 5756 5754 5753 5752 5751 5750 5749 5748 5748 5747 5746 5744 5743 5742
5829 5825 5821 5816 5811 5807 5803 5799 5796 5793 5790 5788 5785 5783 5781 5779 5777 5775 5773 5772 5770 5769 5767 5766 5764 5763 5761 5759 5757 5755 5754 5753 5752 5751 5750 5749 5748 5747 5746 5746 5745 5743 5742
5827 5824 5820 5815 5811 5807 5803 5799 5795 5792 5790 5787 5785 5782 5780 5778 5776 5774 5772 5770 5769 5768 5766 5765 5764 5762 5760 5759 5757 5755 5754 5752 5751 5750 5749 5748 5748 5747 5747 5746 5745 5744 5743
5826 5822 5819 5814 5810 5805 5802 5798 5795 5792 5789 5786 5784 5781 5779 5777 5775 5773 5771 5769 5768 5767 5765 5764 5763 5762 5760 5759 5757 5756 5754 5753 5751 5750 5749 5748 5748 5748 5747 5747 5746 5745 5744
5826 5821 5817 5813 5808 5804 5801 5797 5794 5791 5788 5785 5783 5780 5778 5776 5774 5772 5770 5768 5767 5765 5764 5763 5762 5761 5760 5759 5757 5756 5755 5753 5753 5751 5750 5749 5749 5748 5748 5748 5747 5746 5745
5823 5819 5815 5811 5807 5803 5799 5796 5793 5790 5787 5785 5782 5779 5777 5775 5773 5771 5770 5768 5766 5765 5764 5762 5761 5760 5759 5758 5757 5756 5755 5754 5753 5752 5751 5750 5750 5749 5749 5749 5749 5748 5746
5820 5816 5813 5810 5806 5802 5798 5795 5791 5789 5786 5783 5781 5779 5776 5774 5772 5770 5769 5767 5766 5764 5763 5762 5761 5760 5759 5758 5756 5755 5755 5754 5754 5753 5753 5752 5751 5751 5750 5750 5750 5750 5749
5816 5814 5812 5808 5804 5800 5797 5793 5790 5787 5785 5782 5780 5778 5776 5773 5771 5770 5768 5766 5765 5764 5763 5761 5760 5759 5758 5757 5756 5755 5754 5754 5753 5753 5753 5754 5753 5752 5752 5752 5752 5752 5751
5814 5812 5810 5806 5802 5798 5795 5792 5789 5786 5784 5781 5779 5777 5774 5772 5770 5768 5766 5765 5764 5763 5762 5761 5759 5758 5757 5756 5755 5754 5754 5753 5752 5753 5753 5754 5753 5753 5753 5753 5753 5753 5753
5814 5810 5807 5803 5799 5795 5792 5789 5786 5783 5781 5779 5776 5774 5772 5770 5768 5765 5764 5763 5762 5761 5760 5759 5758 5757 5756 5755 5754 5753 5752 5752 5752 5752 5753 5753 5753 5753 5754 5754 5754 5754 5754
5809 5806 5804 5800 5796 5792 5788 5784 5782 5779 5777 5775 5773 5771 5768 5766 5765 5763 5762 5761 5759 5758 5757 5756 5756 5755 5754 5753 5752 5752 5751 5751 5751 5750 5751 5752 5752 5752 5753 5754 5754 5754 5755
5805 5802 5799 5795 5791 5787 5783 5779 5777 5774 5772 5771 5769 5768 5765 5763 5762 5761 5759 5758 5757 5755 5754 5754 5753 5752 5751 5751 5750 5749 5750 5749 5749 5748 5748 5749 5750 5750 5751 5752 5753 5754 5755
5802 5798 5795 5790 5786 5781 5777 5774 5772 5769 5766 5765 5763 5762 5761 5759 5758 5757 5756 5755 5754 5752 5751 5750 5749 5748 5747 5746 5746 5746 5746 5746 5746 5746 5746 5747 5747 5748 5748 5750 5751 5753 5754
5799 5794 5789 5785 5781 5776 5772 5768 5765 5762 5760 5759 5758 5757 5755 5754 5753 5752 5751 5751 5751 5749 5747 5745 5743 5741 5740 5740 5740 5741 5742 5742 5742 5742 5743 5744 5744 5745 5745 5747 5749 5751 5752
5795 5789 5785 5782 5776 5771 5767 5764 5760 5756 5754 5754 5753 5752 5751 5750 5749 5748 5747 5747 5746 5744 5742 5739 5737 5734 5734 5733 5734 5735 5737 5737 5738 5738 5739 5740 5741 5742 5743 5744 5746 5748 5750
5790 5785 5780 5777 5772 5767 5763 5758 5756 5753 5750 5749 5748 5747 5747 5746 5745 5745 5744 5744 5742 5740 5738 5735 5733 5730 5728 5728 5729 5731 5732 5732 5733 5734 5736 5737 5737 5738 5739 5741 5743 5745 5746
5784 5779 5775 5771 5767 5763 5759 5754 5751 5748 5746 5745 5744 5743 5743 5742 5741 5740 5740 5740 5738 5736 5734 5731 5728 5726 5725 5723 5723 5726 5728 5728 5729 5730 5731 5732 5733 5734 5735 5736 5738 5740 5742
5775 5771 5768 5764 5761 5757 5752 5747 5743 5741 5742 5742 5741 5741 5740 5738 5737 5736 5735 5735 5733 5731 5730 5728 5724 5721 5719 5717 5714 5716 5720 5723 5724 5726 5726 5726 5728 5729 5730 5731 5732 5733 5736
5768 5765 5762 5758 5755 5752 5749 5745 5742 5740 5738 5737 5736 5735 5734 5733 5733 5731 5730 5730 5729 5727 5724 5723 5720 5717 5715 5712 5709 5706 5706 5711 5717 5721 5720 5720 5721 5723 5724 5726 5726 5727 5729
5760 5758 5756 5752 5749 5746 5743 5739 5735 5732 5729 5728 5727 5727 5727 5727 5726 5725 5725 5724 5723 5721 5720 5719 5717 5713 5709 5709 5707 5702 5697 5698 5703 5709 5712 5713 5714 5715 5717 5718 5719 5720 5722
5755 5753 5750 5745 5742 5739 5736 5731 5726 5721 5718 5718 5718 5718 5719 5719 5718 5718 5718 5718 5717 5716 5715 5715 5713 5711 5707 5704 5703 5702 5700 5699 5696 5697 5702 5704 5706 5707 5709 5711 5712 5712 5714
5749 5746 5742 5738 5735 5733 5729 5725 5720 5716 5713 5712 5710 5709 5709 5710 5710 5710 5711 5711 5710 5710 5710 5710 5708 5707 5705 5702 5699 5697 5695 5693 5694 5691 5691 5694 5697 5699 5700 5702 5703 5704 5706
5741 5738 5735 5731 5729 5727 5724 5720 5715 5711 5708 5705 5702 5701 5700 5700 5701 5702 5703 5703 5703 5703 5703 5703 5703 5702 5700 5699 5697 5695 5693 5690 5690 5688 5686 5686 5687 5689 5691 5692 5694 5695 5697